Time,TemperatureF,DewpointF,PressureIn,WindDirection,WindDirectionDegrees,WindSpeedMPH,WindSpeedGustMPH,Humidity,HourlyPrecipIn,Conditions,Clouds,dailyrainin,SoftwareType,DateUTC
2016-02-08 00:09:00,37.6,23.3,29.79,North,359,0.0,0.0,56,0.00,,---,0.00,VWS V15.00,2016-02-08 05:09:00,
2016-02-08 00:14:00,37.6,23.3,29.77,North,359,0.0,0.0,56,0.00,,---,0.00,VWS V15.00,2016-02-08 05:14:00,
2016-02-08 00:19:00,37.6,23.3,29.77,North,359,0.0,0.0,56,0.00,,---,0.00,VWS V15.00,2016-02-08 05:19:00,
2016-02-08 00:24:00,37.6,23.3,29.77,North,359,0.0,0.0,56,0.00,,---,0.00,VWS V15.00,2016-02-08 05:24:00,
2016-02-08 00:29:00,37.5,23.2,29.76,North,359,0.0,0.0,56,0.00,,---,0.00,VWS V15.00,2016-02-08 05:29:00,
2016-02-08 00:34:00,37.5,23.2,29.76,North,357,0.0,0.0,56,0.00,,---,0.00,VWS V15.00,2016-02-08 05:34:00,
2016-02-08 00:39:00,37.5,23.2,29.76,North,359,0.0,0.0,56,0.00,,---,0.00,VWS V15.00,2016-02-08 05:39:00,
2016-02-08 00:44:00,37.5,23.2,29.76,North,359,0.0,0.0,56,0.00,,---,0.00,VWS V15.00,2016-02-08 05:44:00,
2016-02-08 00:49:00,37.3,23.1,29.75,North,357,0.0,0.0,56,0.00,,---,0.00,VWS V15.00,2016-02-08 05:49:00,
2016-02-08 00:54:00,37.3,23.5,29.75,North,359,0.0,0.0,57,0.00,,---,0.00,VWS V15.00,2016-02-08 05:54:00,
2016-02-08 00:59:00,37.3,23.5,29.74,North,359,0.0,0.0,57,0.00,,---,0.00,VWS V15.00,2016-02-08 05:59:00,
2016-02-08 01:04:00,37.2,23.8,29.74,North,359,0.0,0.0,58,0.00,,---,0.00,VWS V15.00,2016-02-08 06:04:00,
2016-02-08 01:09:00,37.2,23.8,29.74,North,359,0.0,0.0,58,0.00,,---,0.00,VWS V15.00,2016-02-08 06:09:00,
2016-02-08 01:14:00,37.0,24.0,29.73,North,359,0.0,0.0,59,0.00,,---,0.00,VWS V15.00,2016-02-08 06:14:00,
2016-02-08 01:19:00,37.0,24.4,29.73,North,359,0.0,0.0,60,0.00,,---,0.00,VWS V15.00,2016-02-08 06:19:00,
2016-02-08 01:24:00,36.9,24.3,29.73,North,359,0.0,0.0,60,0.00,,---,0.00,VWS V15.00,2016-02-08 06:24:00,
2016-02-08 01:29:00,36.8,24.2,29.73,North,357,0.0,0.0,60,0.00,,---,0.00,VWS V15.00,2016-02-08 06:29:00,
2016-02-08 01:39:00,36.6,24.4,29.72,North,359,0.0,0.0,61,0.00,,---,0.00,VWS V15.00,2016-02-08 06:39:00,
2016-02-08 01:44:00,36.5,24.3,29.72,North,359,0.0,0.0,61,0.00,,---,0.00,VWS V15.00,2016-02-08 06:44:00,
2016-02-08 01:49:00,36.5,24.3,29.71,North,359,0.0,0.0,61,0.00,,---,0.00,VWS V15.00,2016-02-08 06:49:00,
2016-02-08 01:54:00,36.3,24.5,29.71,North,357,0.0,0.0,62,0.00,,---,0.00,VWS V15.00,2016-02-08 06:54:00,
2016-02-08 01:59:00,36.3,24.1,29.71,North,357,0.0,0.0,61,0.00,,---,0.00,VWS V15.00,2016-02-08 06:59:00,
2016-02-08 02:09:00,36.2,24.5,29.71,North,359,0.0,0.0,62,0.00,,---,0.00,VWS V15.00,2016-02-08 07:09:00,
2016-02-08 02:19:00,36.0,24.6,29.70,North,359,0.0,0.0,63,0.00,,---,0.00,VWS V15.00,2016-02-08 07:19:00,
2016-02-08 02:24:00,36.0,25.0,29.70,North,357,0.0,0.0,64,0.00,,---,0.00,VWS V15.00,2016-02-08 07:24:00,
2016-02-08 02:34:00,36.0,25.4,29.69,North,357,0.0,0.0,65,0.00,,---,0.00,VWS V15.00,2016-02-08 07:34:00,
2016-02-08 02:39:00,36.0,25.8,29.69,North,357,0.0,0.0,66,0.00,,---,0.00,VWS V15.00,2016-02-08 07:39:00,
2016-02-08 02:44:00,36.0,26.1,29.69,North,357,0.0,0.0,67,0.00,,---,0.00,VWS V15.00,2016-02-08 07:44:00,
2016-02-08 02:49:00,36.0,26.1,29.67,North,357,0.0,0.0,67,0.00,,---,0.00,VWS V15.00,2016-02-08 07:49:00,
2016-02-08 02:54:00,36.0,26.5,29.67,North,357,0.0,0.0,68,0.00,,---,0.00,VWS V15.00,2016-02-08 07:54:00,
2016-02-08 02:59:00,36.0,26.5,29.67,North,359,0.0,0.0,68,0.00,,---,0.00,VWS V15.00,2016-02-08 07:59:00,
2016-02-08 03:04:00,36.0,26.8,29.66,North,357,0.0,0.0,69,0.00,,---,0.00,VWS V15.00,2016-02-08 08:04:00,
2016-02-08 03:14:00,36.0,27.2,29.66,North,359,0.0,0.0,70,0.00,,---,0.00,VWS V15.00,2016-02-08 08:14:00,
2016-02-08 03:19:00,36.0,27.2,29.65,North,357,0.0,0.0,70,0.00,,---,0.00,VWS V15.00,2016-02-08 08:19:00,
2016-02-08 03:24:00,36.0,27.2,29.65,North,357,0.0,0.0,70,0.00,,---,0.00,VWS V15.00,2016-02-08 08:24:00,
2016-02-08 03:29:00,36.0,27.5,29.65,North,359,0.0,0.0,71,0.00,,---,0.00,VWS V15.00,2016-02-08 08:29:00,
2016-02-08 03:34:00,36.0,27.5,29.64,North,359,0.0,0.0,71,0.00,,---,0.00,VWS V15.00,2016-02-08 08:34:00,
2016-02-08 03:39:00,36.0,27.5,29.64,North,359,0.0,0.0,71,0.00,,---,0.00,VWS V15.00,2016-02-08 08:39:00,
2016-02-08 03:49:00,36.0,27.5,29.64,North,359,0.0,0.0,71,0.00,,---,0.00,VWS V15.00,2016-02-08 08:49:00,
2016-02-08 03:54:00,36.0,27.5,29.64,North,359,0.0,0.0,71,0.00,,---,0.00,VWS V15.00,2016-02-08 08:54:00,
2016-02-08 03:59:00,36.0,27.5,29.64,North,359,0.0,0.0,71,0.00,,---,0.00,VWS V15.00,2016-02-08 08:59:00,
2016-02-08 04:04:00,36.0,27.5,29.63,North,359,0.0,0.0,71,0.00,,---,0.00,VWS V15.00,2016-02-08 09:04:00,
2016-02-08 04:09:00,36.0,27.5,29.63,North,359,0.0,0.0,71,0.00,,---,0.00,VWS V15.00,2016-02-08 09:09:00,
2016-02-08 04:14:00,36.0,27.5,29.63,North,359,0.0,0.0,71,0.00,,---,0.00,VWS V15.00,2016-02-08 09:14:00,
2016-02-08 04:19:00,36.0,27.5,29.63,North,359,0.0,0.0,71,0.00,,---,0.00,VWS V15.00,2016-02-08 09:19:00,
2016-02-08 04:24:00,36.0,27.5,29.63,North,359,0.0,0.0,71,0.00,,---,0.00,VWS V15.00,2016-02-08 09:24:00,
2016-02-08 04:29:00,36.2,27.7,29.63,North,359,0.0,0.0,71,0.00,,---,0.00,VWS V15.00,2016-02-08 09:29:00,
2016-02-08 04:34:00,36.2,27.7,29.64,North,359,0.0,0.0,71,0.00,,---,0.00,VWS V15.00,2016-02-08 09:34:00,
2016-02-08 04:39:00,36.2,27.7,29.64,North,359,0.0,0.0,71,0.00,,---,0.00,VWS V15.00,2016-02-08 09:39:00,
2016-02-08 04:44:00,36.2,27.7,29.64,North,359,0.0,0.0,71,0.00,,---,0.00,VWS V15.00,2016-02-08 09:44:00,
2016-02-08 04:49:00,36.3,27.8,29.63,North,357,0.0,0.0,71,0.00,,---,0.00,VWS V15.00,2016-02-08 09:49:00,
2016-02-08 04:54:00,36.3,27.8,29.63,North,357,0.0,0.0,71,0.00,,---,0.00,VWS V15.00,2016-02-08 09:54:00,
2016-02-08 04:59:00,36.5,27.7,29.63,North,357,0.0,0.0,70,0.00,,---,0.00,VWS V15.00,2016-02-08 09:59:00,
2016-02-08 05:04:00,36.5,27.7,29.63,North,359,0.0,0.0,70,0.00,,---,0.00,VWS V15.00,2016-02-08 10:04:00,
2016-02-08 05:09:00,36.6,28.1,29.63,North,359,0.0,0.0,71,0.00,,---,0.00,VWS V15.00,2016-02-08 10:09:00,
2016-02-08 05:14:00,36.6,27.8,29.63,North,359,0.0,0.0,70,0.00,,---,0.00,VWS V15.00,2016-02-08 10:14:00,
2016-02-08 05:19:00,36.8,28.0,29.63,North,359,0.0,0.0,70,0.00,,---,0.00,VWS V15.00,2016-02-08 10:19:00,
2016-02-08 05:24:00,36.8,28.0,29.63,North,359,0.0,0.0,70,0.00,,---,0.00,VWS V15.00,2016-02-08 10:24:00,
2016-02-08 05:29:00,36.8,28.0,29.63,North,359,0.0,0.0,70,0.00,,---,0.00,VWS V15.00,2016-02-08 10:29:00,
2016-02-08 05:34:00,36.9,27.7,29.63,North,359,0.0,0.0,69,0.00,,---,0.00,VWS V15.00,2016-02-08 10:34:00,
2016-02-08 05:39:00,36.9,27.7,29.63,North,359,0.0,0.0,69,0.00,,---,0.00,VWS V15.00,2016-02-08 10:39:00,
2016-02-08 05:44:00,36.9,27.7,29.63,North,359,0.0,0.0,69,0.00,,---,0.00,VWS V15.00,2016-02-08 10:44:00,
2016-02-08 05:49:00,36.9,27.7,29.64,North,359,0.0,0.0,69,0.00,,---,0.00,VWS V15.00,2016-02-08 10:49:00,
2016-02-08 05:54:00,36.9,27.7,29.64,North,359,0.0,0.0,69,0.00,,---,0.00,VWS V15.00,2016-02-08 10:54:00,
2016-02-08 05:59:00,36.9,27.7,29.64,North,357,0.0,0.0,69,0.00,,---,0.00,VWS V15.00,2016-02-08 10:59:00,
2016-02-08 06:04:00,36.9,27.7,29.64,North,359,0.0,0.0,69,0.00,,---,0.00,VWS V15.00,2016-02-08 11:04:00,
2016-02-08 06:09:00,36.9,27.7,29.64,North,359,0.0,0.0,69,0.00,,---,0.00,VWS V15.00,2016-02-08 11:09:00,
2016-02-08 06:14:00,36.9,27.7,29.64,North,359,0.0,0.0,69,0.00,,---,0.00,VWS V15.00,2016-02-08 11:14:00,
2016-02-08 06:19:00,36.9,27.7,29.65,North,357,0.0,0.0,69,0.00,,---,0.00,VWS V15.00,2016-02-08 11:19:00,
2016-02-08 06:24:00,36.9,27.7,29.65,North,357,0.0,0.0,69,0.00,,---,0.00,VWS V15.00,2016-02-08 11:24:00,
2016-02-08 06:29:00,36.9,27.7,29.65,North,357,0.0,0.0,69,0.00,,---,0.00,VWS V15.00,2016-02-08 11:29:00,
2016-02-08 06:34:00,36.9,27.7,29.65,North,357,0.0,0.0,69,0.00,,---,0.00,VWS V15.00,2016-02-08 11:34:00,
2016-02-08 06:39:00,36.9,27.7,29.65,North,357,0.0,0.0,69,0.00,,---,0.00,VWS V15.00,2016-02-08 11:39:00,
2016-02-08 06:44:00,36.9,27.7,29.65,North,357,0.0,0.0,69,0.00,,---,0.00,VWS V15.00,2016-02-08 11:44:00,
2016-02-08 06:49:00,36.9,27.7,29.65,North,359,0.0,0.0,69,0.00,,---,0.00,VWS V15.00,2016-02-08 11:49:00,
2016-02-08 06:54:00,36.8,27.6,29.65,North,359,0.0,0.0,69,0.00,,---,0.00,VWS V15.00,2016-02-08 11:54:00,
2016-02-08 07:04:00,36.8,27.6,29.65,North,359,0.0,0.0,69,0.00,,---,0.00,VWS V15.00,2016-02-08 12:04:00,
2016-02-08 07:14:00,36.8,28.0,29.65,North,359,0.0,0.0,70,0.00,,---,0.00,VWS V15.00,2016-02-08 12:14:00,
2016-02-08 07:19:00,36.6,27.8,29.66,North,359,0.0,0.0,70,0.00,,---,0.00,VWS V15.00,2016-02-08 12:19:00,
2016-02-08 07:24:00,36.6,27.8,29.66,North,359,0.0,0.0,70,0.00,,---,0.00,VWS V15.00,2016-02-08 12:24:00,
2016-02-08 07:29:00,36.6,27.8,29.66,North,359,0.0,0.0,70,0.00,,---,0.00,VWS V15.00,2016-02-08 12:29:00,
2016-02-08 07:34:00,36.6,27.8,29.66,North,359,0.0,0.0,70,0.00,,---,0.00,VWS V15.00,2016-02-08 12:34:00,
2016-02-08 07:39:00,36.5,27.7,29.66,North,359,0.0,0.0,70,0.00,,---,0.00,VWS V15.00,2016-02-08 12:39:00,
2016-02-08 07:44:00,36.5,27.3,29.66,North,359,0.0,0.0,69,0.00,,---,0.00,VWS V15.00,2016-02-08 12:44:00,
2016-02-08 07:49:00,36.5,27.0,29.67,North,357,0.0,0.0,68,0.00,,---,0.00,VWS V15.00,2016-02-08 12:49:00,
2016-02-08 08:04:00,36.5,27.0,29.67,North,359,0.0,0.0,68,0.00,,---,0.00,VWS V15.00,2016-02-08 13:04:00,
2016-02-08 08:09:00,36.5,27.0,29.67,North,359,0.0,0.0,68,0.00,,---,0.00,VWS V15.00,2016-02-08 13:09:00,
2016-02-08 08:14:00,36.5,27.0,29.67,North,359,0.0,0.0,68,0.00,,---,0.00,VWS V15.00,2016-02-08 13:14:00,
2016-02-08 08:19:00,36.5,26.6,29.66,North,357,0.0,0.0,67,0.00,,---,0.00,VWS V15.00,2016-02-08 13:19:00,
2016-02-08 08:24:00,36.5,26.6,29.66,North,357,0.0,0.0,67,0.00,,---,0.00,VWS V15.00,2016-02-08 13:24:00,
2016-02-08 08:29:00,36.5,26.6,29.66,North,359,0.0,0.0,67,0.00,,---,0.00,VWS V15.00,2016-02-08 13:29:00,
2016-02-08 08:34:00,36.5,26.6,29.66,North,359,0.0,0.0,67,0.00,,---,0.00,VWS V15.00,2016-02-08 13:34:00,
2016-02-08 08:39:00,36.3,26.0,29.66,North,359,0.0,0.0,66,0.00,,---,0.00,VWS V15.00,2016-02-08 13:39:00,
2016-02-08 08:44:00,36.2,26.0,29.66,North,359,0.0,0.0,66,0.00,,---,0.00,VWS V15.00,2016-02-08 13:44:00,
2016-02-08 08:49:00,36.2,26.0,29.66,North,359,0.0,0.0,66,0.00,,---,0.00,VWS V15.00,2016-02-08 13:49:00,
2016-02-08 08:54:00,36.0,25.4,29.66,North,359,0.0,0.0,65,0.00,,---,0.00,VWS V15.00,2016-02-08 13:54:00,
2016-02-08 08:59:00,36.0,25.0,29.66,North,359,0.0,0.0,64,0.00,,---,0.00,VWS V15.00,2016-02-08 13:59:00,
2016-02-08 09:04:00,36.0,25.0,29.65,North,359,0.0,0.0,64,0.00,,---,0.00,VWS V15.00,2016-02-08 14:04:00,
2016-02-08 09:14:00,36.0,25.8,29.65,North,359,0.0,0.0,66,0.00,,---,0.00,VWS V15.00,2016-02-08 14:14:00,
2016-02-08 09:19:00,35.9,26.0,29.67,North,359,0.0,0.0,67,0.00,,---,0.00,VWS V15.00,2016-02-08 14:19:00,
2016-02-08 09:24:00,35.9,26.0,29.67,North,359,0.0,0.0,67,0.00,,---,0.00,VWS V15.00,2016-02-08 14:24:00,